Regional Weather Roundup
Issued by NWS

Home | Current Version | Previous Version | Text Only | Print | Product List | Glossary Off
Versions: 1 2 3 4 5 6 7 8 9 10 11 12 13 14 15 16 17 18 19 20 21 22 23 24 25 26 27 28 29 30 31 32 33 34 35 36 37 38 39 40 41 42 43 44 45 46 47 48 49 50

000
ASUS43 KMKX 160100
RWRWI

WISCONSIN REGIONAL WEATHER ROUNDUP
NATIONAL WEATHER SERVICE MILWAUKEE/SULLIVAN WI
800 PM CDT TUE APR 15 2014

NOTE: "FAIR" INDICATES FEW OR NO CLOUDS BELOW 12,000 FEET WITH NO
SIGNIFICANT WEATHER AND/OR OBSTRUCTIONS TO VISIBILITY.

WIZ001-002-006>008-014>016-023>028-160200-
NORTHWEST WISCONSIN

CITY           SKY/WX    TMP DP  RH WIND       PRES   REMARKS
SUPERIOR ARPT  PTCLDY    30   8  39 SW5       30.07R WCI  25
ASHLAND        CLEAR     26   8  46 CALM      30.09R
HAYWARD        CLEAR     28   1  31 CALM      30.06R
SIREN          CLEAR     32   4  30 CALM      30.06R
RICE LAKE      NOT AVBL
LADYSMITH      CLEAR     31   7  36 W5        30.07R WCI  27
EAU CLAIRE     NOT AVBL
MENOMONIE      CLEAR     34   4  28 S7        30.07R WCI  28
NEW RICHMOND   CLOUDY    33   4  29 CALM      30.06R
OSCEOLA        MOCLDY    34   2  25 CALM      30.08S
$$

WIZ003>005-009-010-017-018-160200-
NORTH CENTRAL WISCONSIN

CITY           SKY/WX    TMP DP  RH WIND       PRES   REMARKS
WOODRUFF       CLEAR     27   1  32 CALM      30.03R
RHINELANDER    CLEAR     20   2  45 W3        30.04R
EAGLE RIVER    CLEAR     25   0  33 CALM      30.03R
LAND O LAKES   CLEAR     26   2  36 N5        30.03S WCI  20
PHILLIPS       CLEAR     28   2  33 CALM      30.03R
TOMAHAWK       CLEAR     28   3  35 CALM      30.04R
MEDFORD        CLEAR     29  13  49 SW5       30.05R WCI  24
MERRILL        CLEAR     28  10  45 SW5       30.07R WCI  23
$$

WIZ029-030-035-036-043>047-160200-
CENTRAL WISCONSIN

CITY           SKY/WX    TMP DP  RH WIND       PRES   REMARKS
WAUSAU         CLEAR     28   9  44 SW6       30.07R WCI  22
MOSINEE        CLEAR     25  12  58 CALM      30.10R
MARSHFIELD     CLEAR     30  10  43 CALM      30.07R
STEVENS POINT  CLEAR     28  10  47 CALM      30.10R
WAUPACA        CLEAR     30  16  55 SW3       30.13R
WAUTOMA        NOT AVBL
WISC RAPIDS    CLEAR     28  14  55 S3        30.11R
CAMP DOUGLAS   NOT AVBL
$$

WIZ011>013-019>022-031-037>040-048>050-160200-
NORTHEAST WISCONSIN

CITY           SKY/WX    TMP DP  RH WIND       PRES   REMARKS
ANTIGO         CLEAR     22  11  61 SW8       30.05S WCI  13
STURGEON BAY   CLEAR     28  14  54 W7        30.12R WCI  21
GREEN BAY      PTCLDY    30  17  58 W6        30.13R WCI  24
MANITOWOC      NOT AVBL
APPLETON       PTCLDY    27  16  63 W7        30.12R WCI  19
CLINTONVILLE   CLEAR     30  12  47 W6        30.11R WCI  24
OSHKOSH        PTCLDY    30  15  53 W3        30.13R
$$

WIZ032>034-041-042-053>061-160200-
SOUTHWEST WISCONSIN

CITY           SKY/WX    TMP DP  RH WIND       PRES   REMARKS
LA CROSSE      PTCLDY    34  14  43 SW9       30.10R WCI  27
SPARTA         PTCLDY    33   8  35 CALM      30.11R
VIROQUA        FAIR      32  17  54 W5        30.08R WCI  27
BOSCOBEL       PTCLDY    35  12  38 VRB3      30.12S
PRAIRIE DU CHI CLEAR     36  11  35 CALM      30.11S
PLATTEVILLE    FAIR      33  19  56 SW6       30.12S WCI  28
$$

WIZ056-057-062-063-064-067-068-160200-
SOUTH CENTRAL WISCONSIN

CITY           SKY/WX    TMP DP  RH WIND       PRES   REMARKS
BARABOO/DELLS  CLEAR     32  14  47 CALM      30.11R
LONE ROCK      NOT AVBL
WATERTOWN      MOCLDY    32  15  50 W3        30.12R
MADISON        PTCLDY    33  15  47 CALM      30.13R
MIDDLETON      FAIR      34  12  40 CALM      30.12R
MONROE         CLEAR     34  14  44 W5        30.11R WCI  30
JANESVILLE     CLEAR     36  16  44 CALM      30.13R
$$

WIZ051-052-058>065-066-070>072-160200-
SOUTHEAST WISCONSIN

CITY           SKY/WX    TMP DP  RH WIND       PRES   REMARKS
MILWAUKEE      MOCLDY    30  19  63 S9        30.16R WCI  22
WAUKESHA       PTCLDY    28  14  54 NW6       30.12F WCI  22
MILWAUKEE/TIMM PTCLDY    34  16  47 CALM      30.15R
RACINE         CLOUDY    30  20  66 S9        30.18R WCI  22
BURLINGTON     PTCLDY    32  16  52 CALM      30.14R
KENOSHA        CLOUDY    30  20  66 SE10      30.15R WCI  21
FOND DU LAC    CLEAR     29  15  56 W6        30.14R WCI  23
SHEBOYGAN      MOCLDY    30  19  63 W6        30.15R WCI  24
WEST BEND      PTCLDY    30  10  43 CALM      30.14R
JUNEAU         PTCLDY    31  10  41 CALM      30.14R
$$

LSZ147-162-160200-
LAKE SUPERIOR

STATION/POSITION TIME  TEMP    WIND        PRES    WAVE
                       AIR SEA DIR/SP/G            HT/PER
                 (UTC) (F)     (DEG/KT/KT) (MB)    (FT/S)
DEVILS ISLAND    0000   28     220/  5/  8 1019.3R
PORT WING        0000   31     220/  7/  8 1018.3
SAXON HARBOR     0000           60/  2/  3 1018.6
$$

LMZ867-665-643>646-160200-
LAKE MICHIGAN

STATION/POSITION TIME  TEMP    WIND        PRES    WAVE
                       AIR SEA DIR/SP/G            HT/PER
                 (UTC) (F)     (DEG/KT/KT) (MB)    (FT/S)
NORTHPORT PIER   0000   29      CALM  /  7 1019.3R
SISTER BAY       0008   27        CALM       N/A
KEWAUNEE LAKESHO 0000   31     250/  9/ 10 1020.4R
SHEBOYGAN LAKESH 0000   33     270/ 10/ 12 1021.5R
PORT WASHINGTON  0000   32     170/ 11/ 14 1021.3R
MILWAUKEE LAKESH 0000   31     140/ 15/ 17   N/A
KENOSHA   LAKESH 0000   31     160/ 17/ 19   N/A
$$

TC  - TEMPERATURE IN CELSIUS
VSB - VISIBILITY IN STATUTE MILES
WCI - WIND CHILL INDEX
HX  - HEAT INDEX




USA.gov is the U.S. government's official web portal to all federal, state and local government web resources and services.